Weather in Berislav

Ukraine / Kherson District     46°50′29″N   33°25′45″E
temp.,
°C
wind,
m/s
gust,
m/s
humid.,
%
clouds,
%
prec.,
mm/h
press.,
hPa
HPBL,
m
25 july, sun
sun2500:00+22ese225018 0.0 101679
03:00+22nne33560 0.0 1016126
06:00+23nne345764 0.0 1016186
09:00+26ne454744 0.0 1017600
12:00+29nne44330 0.0 10172169
15:00+31n553150 0.0 10162213
18:00+30n663637 0.0 1016991
21:00+28ne4745100 0.0 1017520
26 july, mon
mon2600:00+24sw234943 0.0 101860
03:00+24e23475 0.0 101888
06:00+22ene47580 0.0 1018159
09:00+27ene57436 0.0 1019564
12:00+31ne553323 0.0 10192501
15:00+32nne763022 0.0 10182036
18:00+31nne773242 0.0 1017866
21:00+28ne594447 0.0 1018281
27 july, tue
tue2700:00+25ne58470 0.0 1019199
03:00+24ne45550 0.0 1018121
06:00+24nne46600 0.0 1019147
09:00+28nne55450 0.0 1018526
12:00+31nne54350 0.0 10181680
15:00+32nne543444 0.0 10171602
18:00+30ese45442 0.0 1017470
21:00+26se335411 0.0 101878
28 july, wed
wed2800:00+24s22580 0.0 101840
03:00+23se33600 0.0 101871
06:00+23se22625 0.0 101851
09:00+29sse44456 0.0 1018672
12:00+32sse543993 0.0 10171826
15:00+33sse5434100 0.0 10161997
18:00+32s663590 0.0 10151153
21:00+25s6105124 0.0 1016256
29 july, thu
thu2900:00+23s47630 0.0 1015149
03:00+22sw477262 0.0 1015153
06:00+22sw468036 0.0 1014151
09:00+28wsw57480 0.0 1014817
12:00+33sw56375 0.0 10121156
15:00+35wsw76325 0.0 10111714
18:00+32wsw77355 0.0 10111055
21:00+26sw610522 0.0 1011326